DW2370 Weather Reports


time (UTC)temp
C
wind
direction
speed
KPH
gust
KPH
rain 1hr
cm
rain 24hr
cm
rain mn
cm
humidity
%
barometer
mb
20260507110026 13 0.0 0.0 0.00 0.00 0.00 88 1014.9
20260507105022 13 0.0 0.0 0.00 0.00 0.00 88 1014.9
20260507104027 13 0.0 0.0 0.00 0.00 0.00 87 1015.0
20260507103022 14 0.0 0.0 0.00 0.00 0.00 87 1015.1
20260507102024 14 0.0 0.0 0.00 0.00 0.00 87 1015.2
20260507101026 14 0.0 0.0 0.00 0.00 0.00 87 1015.2
20260507100051 15 0.0 0.0 0.00 0.00 0.00 86 1015.4
20260507095026 15 0.0 0.0 0.00 0.00 0.00 87 1015.5
20260507094022 15 0.0 0.0 0.00 0.00 0.00 87 1015.5
20260507093025 15 0.0 0.0 0.00 0.00 0.00 87 1015.5
20260507092022 15 0.0 0.0 0.00 0.00 0.00 87 1015.6
20260507091026 16 0.0 0.0 0.00 0.00 0.00 88 1015.6
20260507090051 16 0.0 0.0 0.00 0.00 0.00 89 1015.7
20260507085026 16 0.0 0.0 0.00 0.00 0.00 89 1015.7
20260507084026 15 0.0 0.0 0.00 0.00 0.00 89 1015.9
20260507083021 15 0.0 0.0 0.00 0.00 0.00 89 1015.9
20260507082047 15 0.0 1.6 0.00 0.00 0.00 89 1015.9
20260507081026 15 0.0 1.6 0.00 0.00 0.00 89 1016.0
20260507080025 15 0.0 0.0 0.00 0.00 0.00 89 1016.1
20260507075026 15 0.0 0.0 0.00 0.00 0.00 88 1016.3
20260507074025 15 0.0 0.0 0.00 0.00 0.00 88 1016.3
20260507073025 14 0.0 0.0 0.00 0.00 0.00 88 1016.3
20260507072022 14 0.0 0.0 0.00 0.00 0.00 87 1016.3
20260507071021 14 0.0 0.0 0.00 0.00 0.00 87 1016.3
20260507070119 14 0.0 0.0 0.00 0.00 0.00 86 1016.3
20260507065050 14 0.0 0.0 0.00 0.00 0.00 86 1016.3
20260507064026 15 0.0 0.0 0.00 0.00 0.00 86 1016.5
20260507063021 15 0.0 0.0 0.00 0.00 0.00 85 1016.5
20260507062026 15 0.0 0.0 0.00 0.00 0.00 85 1016.5
20260507061021 15 0.0 0.0 0.00 0.00 0.00 85 1016.4
20260507060025 15 0.0 0.0 0.00 0.00 0.00 84 1016.3
20260507055025 15 0.0 0.0 0.00 0.00 0.00 84 1016.3
20260507054025 15 0.0 0.0 0.00 0.00 0.00 84 1016.5
20260507053025 16 0.0 0.0 0.00 0.00 0.00 84 1016.4
20260507052021 16 0.0 0.0 0.00 0.00 0.00 84 1016.4
20260507051021 16 0.0 0.0 0.00 0.00 0.00 84 1016.4
20260507050026 16 0.0 1.6 0.00 0.00 0.00 85 1016.3
20260507045025 16 0.0 1.6 0.00 0.00 0.00 85 1016.4
20260507044026 16 0.0 0.0 0.00 0.00 0.00 85 1016.3
20260507043025 16 0.0 1.6 0.00 0.00 0.00 85 1016.1
20260507042025 16 0.0 1.6 0.00 0.00 0.00 85 1016.1
20260507041021 16 0.0 1.6 0.00 0.00 0.00 85 1016.2
20260507040021 16 0.0 1.6 0.00 0.00 0.00 85 1016.1
20260507035025 16 0.0 1.6 0.00 0.00 0.00 85 1016.1
20260507034050 16 0.0 3.2 0.00 0.00 0.00 84 1015.9
20260507033025 16 0.0 1.6 0.00 0.00 0.00 84 1015.9
20260507032025 16 0.0 1.6 0.00 0.00 0.00 84 1015.9
20260507031026 17 0.0 1.6 0.00 0.00 0.00 84 1015.8
20260507030021 17 0.0 1.6 0.00 0.00 0.00 84 1015.8
20260507025021 17 0.0 1.6 0.00 0.00 0.00 83 1015.7
20260507024025 17 0.0 1.6 0.00 0.00 0.00 82 1015.6
20260507023025 17 0.0 1.6 0.00 0.00 0.00 81 1015.5
20260507022025 17 0.0 1.6 0.00 0.00 0.00 80 1015.4
20260507021025 18 0.0 6.4 0.00 0.00 0.00 79 1015.4
20260507020025 18 0.0 8.0 0.00 0.00 0.00 79 1015.4
20260507015021 18 0.0 3.2 0.00 0.00 0.00 78 1015.2
20260507014025 18 293 1.6 9.7 0.00 0.00 0.00 78 1015.5
20260507013050 18 270 1.6 11.3 0.00 0.00 0.00 78 1015.4
20260507012025 18 270 1.6 9.7 0.00 0.00 0.00 77 1015.4
20260507011025 19 293 3.2 17.7 0.00 0.00 0.00 75 1015.3
20260507010021 19 293 1.6 8.0 0.00 0.00 0.00 75 1015.3
20260507005021 19 270 3.2 16.1 0.00 0.00 0.00 75 1015.2
20260507004021 19 270 3.2 12.9 0.00 0.00 0.00 75 1015.2
20260507003050 19 248 1.6 11.3 0.00 0.00 0.00 75 1015.2
20260507002050 19 270 3.2 12.9 0.00 0.00 0.00 75 1015.2
20260507001140 19 293 1.6 9.7 0.00 0.00 0.00 75 1015.1
20260507000023 19 248 3.2 12.9 0.00 0.00 0.00 75 1015.0
20260506235021 19 270 3.2 14.5 0.00 0.00 0.00 75 1014.9
20260506234021 19 270 1.6 11.3 0.00 0.00 0.00 76 1014.9
20260506233025 19 248 3.2 16.1 0.00 0.00 0.00 76 1015.1
20260506232023 19 270 3.2 12.9 0.00 0.00 0.00 76 1015.1
20260506231025 19 270 3.2 12.9 0.00 0.00 0.00 74 1015.2
20260506230025 19 270 4.8 14.5 0.00 0.00 0.00 73 1015.1
20260506225025 19 293 1.6 12.9 0.00 0.00 0.00 75 1015.2
20260506224021 19 270 4.8 19.3 0.00 0.00 0.00 73 1015.2
20260506223021 19 270 6.4 17.7 0.00 0.00 0.00 72 1015.4
20260506222025 20 293 4.8 17.7 0.00 0.00 0.00 72 1015.4
20260506221050 20 270 4.8 16.1 0.00 0.00 0.00 72 1015.5
20260506220024 20 270 4.8 19.3 0.00 0.00 0.00 72 1015.6
20260506215023 20 293 4.8 19.3 0.00 0.00 0.00 72 1015.6
20260506214050 20 270 4.8 22.5 0.00 0.00 0.00 70 1015.6
20260506213021 19 270 3.2 16.1 0.00 0.00 0.00 71 1015.8
20260506212025 19 270 6.4 17.7 0.00 0.00 0.00 71 1015.9
20260506211025 19 270 3.2 12.9 0.00 0.00 0.00 70 1016.0
20260506210024 20 270 4.8 17.7 0.00 0.00 0.00 70 1016.0
20260506205025 20 270 3.2 17.7 0.00 0.00 0.00 70 1016.2
20260506204024 20 248 3.2 12.9 0.00 0.00 0.00 72 1016.2
20260506203024 19 293 1.6 14.5 0.00 0.00 0.00 72 1016.2
20260506202021 19 270 1.6 12.9 0.00 0.00 0.00 74 1016.2
20260506201050 19 270 4.8 17.7 0.00 0.00 0.00 72 1016.4
20260506200025 18 270 6.4 17.7 0.00 0.00 0.00 72 1016.4
20260506195025 18 248 4.8 16.1 0.00 0.00 0.00 72 1016.5
20260506194023 18 248 4.8 17.7 0.00 0.00 0.00 72 1016.6
20260506193025 18 270 4.8 16.1 0.00 0.00 0.00 72 1016.8
20260506192020 18 270 3.2 19.3 0.00 0.00 0.00 71 1017.0
20260506191020 18 248 1.6 11.3 0.00 0.00 0.00 71 1017.0
20260506190024 18 248 1.6 11.3 0.00 0.00 0.00 71 1017.0
20260506185025 18 225 3.2 16.1 0.00 0.00 0.00 72 1017.0
20260506184025 18 0.0 6.4 0.00 0.00 0.00 70 1017.0
20260506183049 18 293 1.6 6.4 0.00 0.00 0.00 72 1017.1
20260506182025 18 270 1.6 8.0 0.00 0.00 0.00 72 1017.1
20260506181021 18 270 1.6 12.9 0.00 0.00 0.00 72 1017.3
20260506180021 18 293 1.6 11.3 0.00 0.00 0.00 73 1017.4
20260506175025 18 293 1.6 11.3 0.00 0.00 0.00 74 1017.4
20260506174025 18 248 1.6 8.0 0.00 0.00 0.00 73 1017.4
20260506173025 18 0.0 6.4 0.00 0.00 0.00 72 1017.4
20260506172025 18 0.0 3.2 0.00 0.00 0.00 74 1017.5
20260506171020 17 270 3.2 11.3 0.00 0.00 0.00 74 1017.4
20260506170025 17 270 1.6 9.7 0.00 0.00 0.00 73 1017.7
20260506165115 17 270 1.6 9.7 0.00 0.00 0.00 73 1017.6
20260506164048 17 248 1.6 8.0 0.00 0.00 0.00 72 1017.6
20260506163025 17 0.0 4.8 0.00 0.00 0.00 73 1017.6
20260506162024 17 0.0 1.6 0.00 0.00 0.00 71 1017.5
20260506161025 18 0.0 3.2 0.00 0.00 0.00 71 1017.5
20260506160021 18 0.0 1.6 0.00 0.00 0.00 70 1017.5
20260506155024 18 0.0 0.0 0.00 0.00 0.00 70 1017.5
20260506154024 18 0.0 1.6 0.00 0.00 0.00 70 1017.4
20260506153049 18 0.0 0.0 0.00 0.00 0.00 70 1017.4
20260506152115 17 0.0 0.0 0.00 0.00 0.00 72 1017.3
20260506151024 17 0.0 0.0 0.00 0.00 0.00 73 1017.5
20260506150021 16 0.0 0.0 0.00 0.00 0.00 74 1017.6
20260506145021 16 0.0 1.6 0.00 0.00 0.00 76 1017.5
20260506144024 15 0.0 1.6 0.00 0.00 0.00 78 1017.4
20260506143025 15 0.0 1.6 0.00 0.00 0.00 79 1017.3
20260506142024 14 0.0 1.6 0.00 0.00 0.00 82 1017.2
20260506141024 13 0.0 1.6 0.00 0.00 0.00 82 1017.3
20260506140050 13 0.0 0.0 0.00 0.00 0.00 84 1017.3
20260506135020 12 0.0 1.6 0.00 0.00 0.00 85 1017.1
20260506134045 12 0.0 1.6 0.00 0.00 0.00 85 1017.0
20260506133025 12 0.0 1.6 0.00 0.00 0.00 86 1016.9
20260506132024 12 0.0 1.6 0.00 0.03 0.00 86 1016.8
20260506131024 12 0.0 1.6 0.00 0.13 0.00 86 1016.8
20260506130024 12 0.0 0.0 0.00 0.13 0.00 86 1016.6
20260506125020 12 0.0 0.0 0.00 0.13 0.00 86 1016.5
20260506124024 12 0.0 0.0 0.00 0.13 0.00 86 1016.5
20260506123020 12 0.0 0.0 0.00 0.13 0.00 85 1016.5
20260506122024 12 0.0 0.0 0.00 0.13 0.00 85 1016.5
20260506121049 12 0.0 1.6 0.00 0.13 0.00 85 1016.5
20260506120024 12 0.0 0.0 0.00 0.15 0.00 85 1016.5
20260506115024 12 0.0 0.0 0.00 0.15 0.00 86 1016.4
20260506114045 12 0.0 0.0 0.00 0.18 0.00 86 1016.4
20260506113024 12 0.0 1.6 0.00 0.18 0.00 86 1016.5
20260506112020 12 0.0 0.0 0.00 0.20 0.00 86 1016.3
20260506111049 12 0.0 0.0 0.00 0.28 0.00 85 1016.3
20260506110049 12 0.0 0.0 0.00 0.28 0.00 85 1016.3